Simultaneous Nadir Overpasses (SNOs) Predictions

Prediction of SNOs between GOES-15 and METOP-A Satellite Orbit:

Table of predicted SNOs for the next 14.0 days since TLE Epoch: 5/25/2017
Index Date Time (GOES-15) GOES-15 Lat,Lon METOP-A Lat,Lon Distance(km) Time Diff (sec)
1 05/26/2017 18:40:53 -0.13,-134.70 0.53,-137.58 328.21 80
2 05/27/2017 18:17:33 -0.14,-134.65 -0.61,-132.59 235.51 80
3 05/29/2017 06:36:31 0.14,-134.52 -0.48,-137.17 302.15 80
4 05/30/2017 06:18:32 0.14,-134.48 0.65,-132.18 261.61 80
5 05/31/2017 18:37:23 -0.14,-134.46 0.36,-136.74 260.46 80
6 06/01/2017 18:14:03 -0.15,-134.40 -0.71,-131.74 302.95 80
7 06/03/2017 06:33:02 0.14,-134.27 -0.32,-136.33 235.29 80
8 06/04/2017 06:15:02 0.15,-134.22 0.76,-131.33 328.23 80
9 06/05/2017 18:33:53 -0.14,-134.20 0.25,-135.90 194.04 80
10 06/06/2017 18:10:33 -0.15,-134.14 -0.89,-130.91 368.88 80
11 06/08/2017 06:29:32 0.14,-133.99 -0.20,-135.49 170.49 80




NCC Satellite Simultaneous Nadir Overpasses (SNOs) Prediction Service
